Location: Unspecified
(0.0000°N, 0.0000°E)
Time: 21:28:51
(UTC+00:00)

OBJECT C - Visible Passes

Search period start: 07 September 2024 00:00
Search period end: 17 September 2024 00:00
Orbit: 562 x 585 km, 62.0° (Epoch: 07 September)

Date Brightness Start Highest point End Pass type
(mag) Time Alt. Az. Time Alt. Az. Time Alt. Az.
14 Sep ? 18:39:15 10° SE 18:40:32 12° ESE 18:40:32 12° ESE visible
14 Sep ? 20:16:26 10° WSW 20:16:48 12° WSW 20:16:48 12° WSW visible
15 Sep ? 18:40:11 10° SSE 18:43:30 23° ESE 18:45:03 19° E visible
15 Sep ? 20:20:07 10° W 20:21:21 13° W 20:21:21 13° W visible
16 Sep ? 18:42:00 10° S 18:45:58 42° ESE 18:49:50 10° NE visible
